User: anonymous   Login
Location: Unspecified
(0.0000°N, 0.0000°E)
Time: 13:01:18
(UTC+00:00)
Language:

NOSS 2-2 (E) - Orbit

View from above orbital plane
View from above orbital plane
View from above satellite
View from above satellite

Ground track
Ground track

The orbit data is extracted from the following two-line orbital elements,

1 21809U 91076E   19063.73291231 0.00000000  00000-0  00000-0 0    03
2 21809  63.3416 280.6579 0800000  29.7444 330.2556 13.41466208    09
Epoch (UTC): 04 March 2019 17:35:23
Eccentricity: 0.0800000
inclination: 63.3416°
perigee height: 505 km
apogee height: 1702 km
right ascension of ascending node: 280.6579°
argument of perigee: 29.7444°
revolutions per day: 13.41466208
mean anomaly at epoch: 330.2556°
orbit number at epoch: 0

The dashed part of the orbit path shows where the satellite is in the earth's shadow,  

DLR